GW7440 Weather Reports


time (UTC)temp
C
wind
direction
speed
KPH
gust
KPH
rain 1hr
cm
rain 24hr
cm
rain mn
cm
humidity
%
barometer
mb
20260906060511 22 91 0.0 0.0 0.00 0.00 0.00 97 1012.5
20260906055508 21 91 0.0 0.0 0.00 0.00 0.00 98 1012.6
20260906054519 21 91 0.0 0.0 0.00 0.00 0.00 98 1012.7
20260906053511 21 91 0.0 0.0 0.00 0.00 0.00 97 1012.7
20260906052518 22 91 0.0 0.0 0.00 0.00 0.00 97 1012.8
20260906051508 22 91 0.0 0.0 0.00 0.00 0.00 97 1013.1
20260906050508 21 91 0.0 0.0 0.00 0.00 0.00 97 1013.1
20260906045508 22 91 0.0 0.0 0.00 0.00 0.00 96 1013.2
20260906044509 22 91 0.0 0.0 0.00 0.00 0.00 96 1013.3
20260906043509 22 91 1.6 1.6 0.00 0.00 0.00 96 1013.3
20260906042511 22 91 0.0 0.0 0.00 0.00 0.00 96 1013.2
20260906041510 22 91 0.0 0.0 0.00 0.00 0.00 96 1013.2
20260906040510 22 91 0.0 0.0 0.00 0.00 0.00 96 1013.4
20260906035507 22 91 0.0 0.0 0.00 0.00 0.00 96 1013.1
20260906034510 22 91 0.0 0.0 0.00 0.00 0.00 96 1013.5
20260906033511 22 91 0.0 0.0 0.00 0.00 0.00 96 1013.6
20260906032512 22 91 0.0 0.0 0.00 0.00 0.00 95 1013.4
20260906031521 22 91 0.0 0.0 0.00 0.00 0.00 95 1013.5
20260906030508 22 91 0.0 0.0 0.00 0.00 0.00 96 1013.4
20260906025508 22 91 0.0 0.0 0.00 0.00 0.00 95 1013.5
20260906024510 22 91 0.0 0.0 0.00 0.00 0.00 95 1013.4
20260906023521 22 91 0.0 0.0 0.00 0.00 0.00 94 1013.3
20260906022511 22 91 0.0 0.0 0.00 0.00 0.00 93 1013.2
20260906021518 22 91 0.0 0.0 0.00 0.00 0.00 94 1013.1
20260906020511 22 91 0.0 0.0 0.00 0.00 0.00 93 1013.2
20260906020009 23 91 0.0 0.0 0.00 0.00 0.00 93 1013.4
20260906015009 22 91 0.0 0.0 0.00 0.00 0.00 94 1012.9
20260906013010 23 91 0.0 0.0 0.00 0.00 0.00 93 1012.8
20260906012011 23 91 0.0 0.0 0.00 0.00 0.00 92 1013.0
20260906011009 23 91 0.0 0.0 0.00 0.00 0.00 93 1012.7
20260906010008 23 91 0.0 0.0 0.00 0.00 0.00 91 1012.6
20260906005018 23 91 0.0 0.0 0.00 0.00 0.00 91 1012.8
20260906004023 24 91 0.0 0.0 0.00 0.00 0.00 89 1012.6
20260906003009 24 91 0.0 0.0 0.00 0.00 0.00 90 1012.5
20260906002010 24 91 1.6 1.6 0.00 0.00 0.00 88 1012.4
20260906001017 25 91 0.0 0.0 0.00 0.00 0.00 87 1012.3
20260906000020 25 91 0.0 0.0 0.00 0.00 0.00 85 1012.1
20260905234012 25 91 0.0 0.0 0.00 0.00 0.00 83 1011.8
20260905233010 26 91 0.0 0.0 0.00 0.00 0.00 81 1011.7
20260905232009 26 90 0.0 0.0 0.00 0.00 0.00 79 1011.9
20260905231012 26 90 0.0 0.0 0.00 0.00 0.00 77 1011.7
20260905225011 27 90 0.0 0.0 0.00 0.00 0.00 72 1012.1
20260905224021 27 90 0.0 0.0 0.00 0.00 0.00 73 1011.9
20260905223011 27 91 0.0 0.0 0.00 0.00 0.00 69 1011.8
20260905222010 27 91 1.6 1.6 0.00 0.00 0.00 69 1011.8
20260905221013 27 89 0.0 0.0 0.00 0.00 0.00 69 1011.8
20260905220012 27 81 0.0 0.0 0.00 0.00 0.00 63 1011.9
20260905215508 27 81 0.0 0.0 0.00 0.00 0.00 70 1011.9
20260905214513 27 80 0.0 1.6 0.00 0.00 0.00 67 1012.1
20260905213511 28 80 0.0 0.0 0.00 0.00 0.00 67 1012.2
20260905212522 28 79 0.0 0.0 0.00 0.00 0.00 61 1012.3
20260905211519 27 79 0.0 0.0 0.00 0.00 0.00 68 1012.2
20260905210513 27 59 0.0 0.0 0.00 0.00 0.00 62 1012.3
20260905205507 26 41 0.0 0.0 0.00 0.00 0.00 68 1012.4
20260905204521 26 64 0.0 0.0 0.00 0.00 0.00 68 1012.5
20260905203511 25 77 3.2 1.6 0.00 0.00 0.00 67 1012.7
20260905202509 26 130 1.6 1.6 0.00 0.00 0.00 68 1013.0
20260905201511 26 83 0.0 0.0 0.00 0.00 0.00 66 1012.9
20260905200522 26 65 1.6 1.6 0.00 0.00 0.00 65 1012.4
20260905200010 26 65 0.0 0.0 0.00 0.00 0.00 68 1012.9
20260905195012 27 42 1.6 1.6 0.00 0.00 0.00 63 1013.1
20260905194020 27 28 3.2 3.2 0.00 0.00 0.00 65 1013.4
20260905192521 28 10 1.6 1.6 0.00 0.00 0.00 64 1012.5
20260905191011 28 40 3.2 3.2 0.00 0.00 0.00 61 1012.3
20260905190014 30 27 1.6 3.2 0.00 0.00 0.00 62 1011.9
20260905185010 31 144 1.6 1.6 0.00 0.00 0.00 58 1011.6
20260905184010 32 143 3.2 4.8 0.00 0.00 0.00 53 1012.4
20260905183010 33 255 0.0 0.0 0.00 0.00 0.00 55 1012.4
20260905182008 35 200 0.0 0.0 0.00 0.00 0.00 53 1012.3
20260905180009 36 205 0.0 0.0 0.00 0.00 0.00 45 1012.6
20260905175011 36 171 1.6 1.6 0.00 0.00 0.00 45 1013.1
20260905174022 37 176 1.6 1.6 0.00 0.00 0.00 47 1013.2
20260905173010 36 77 0.0 0.0 0.00 0.00 0.00 50 1013.4
20260905172020 36 171 1.6 3.2 0.00 0.00 0.00 49 1013.5
20260905171023 36 148 1.6 1.6 0.00 0.00 0.00 47 1013.7
20260905170509 36 12 1.6 1.6 0.00 0.00 0.00 42 1013.7
20260905165512 36 173 1.6 1.6 0.00 0.00 0.00 48 1013.7
20260905164515 36 50 3.2 3.2 0.00 0.00 0.00 47 1014.0
20260905163512 35 56 1.6 1.6 0.00 0.00 0.00 49 1014.0
20260905162510 35 160 1.6 1.6 0.00 0.00 0.00 50 1014.3
20260905160510 35 112 0.0 0.0 0.00 0.00 0.00 51 1014.3
20260905155510 35 77 1.6 1.6 0.00 0.00 0.00 54 1014.6
20260905154520 35 104 1.6 1.6 0.00 0.00 0.00 56 1014.5
20260905153511 34 104 0.0 0.0 0.00 0.00 0.00 60 1014.5
20260905152519 32 338 3.2 3.2 0.00 0.00 0.00 64 1014.5
20260905151520 32 106 1.6 1.6 0.00 0.00 0.00 63 1014.4
20260905150522 31 124 0.0 0.0 0.00 0.00 0.00 68 1014.6
20260905145514 31 60 1.6 1.6 0.00 0.00 0.00 68 1014.8
20260905144510 30 233 0.0 0.0 0.00 0.00 0.00 72 1014.6
20260905143520 30 110 0.0 0.0 0.00 0.00 0.00 71 1014.6
20260905142511 29 42 0.0 0.0 0.00 0.00 0.00 73 1014.6
20260905141510 29 102 1.6 0.0 0.00 0.00 0.00 76 1014.7
20260905140511 28 66 1.6 1.6 0.00 0.00 0.00 78 1014.6
20260905140007 28 67 0.0 0.0 0.00 0.00 0.00 82 1014.6
20260905135013 28 65 1.6 1.6 0.00 0.00 0.00 82 1014.7
20260905134013 27 65 0.0 0.0 0.00 0.00 0.00 84 1014.7
20260905133015 27 65 0.0 0.0 0.00 0.00 0.00 87 1014.8
20260905132010 26 64 0.0 0.0 0.00 0.00 0.00 87 1014.6
20260905131011 25 63 0.0 0.0 0.00 0.00 0.00 91 1014.7
20260905130507 25 63 0.0 0.0 0.00 0.00 0.00 92 1014.8
20260905125512 25 77 0.0 0.0 0.00 0.00 0.00 92 1015.1
20260905124512 25 77 0.0 0.0 0.00 0.00 0.00 93 1014.9
20260905123513 24 77 0.0 0.0 0.00 0.00 0.00 94 1015.0
20260905123009 23 77 0.0 0.0 0.00 0.00 0.00 95 1015.0
20260905122009 23 77 0.0 0.0 0.00 0.00 0.00 95 1014.9
20260905121011 23 77 1.6 1.6 0.00 0.00 0.00 97 1015.0
20260905120008 23 77 0.0 0.0 0.00 0.00 0.00 97 1014.8
20260905115011 23 77 0.0 0.0 0.00 0.00 0.00 98 1014.8
20260905114010 23 77 0.0 0.0 0.00 0.00 0.00 98 1014.8
20260905113011 23 77 0.0 0.0 0.00 0.00 0.00 98 1014.5
20260905112010 22 77 0.0 0.0 0.00 0.00 0.00 99 1014.1
20260905111014 22 77 0.0 0.0 0.00 0.00 0.00 98 1014.0
20260905110008 22 77 0.0 0.0 0.00 0.00 0.00 98 1014.1
20260905105013 22 77 0.0 0.0 0.00 0.00 0.00 98 1013.9
20260905104021 22 77 0.0 0.0 0.00 0.00 0.00 98 1013.7
20260905103011 22 77 0.0 0.0 0.00 0.00 0.00 99 1013.5
20260905102019 22 77 0.0 0.0 0.00 0.00 0.00 99 1013.5
20260905101011 22 77 0.0 0.0 0.00 0.00 0.00 99 1013.6
20260905100008 22 77 0.0 0.0 0.00 0.00 0.00 99 1013.6
20260905095011 22 77 0.0 0.0 0.00 0.00 0.00 98 1013.5
20260905094021 22 77 0.0 0.0 0.00 0.00 0.00 98 1013.5
20260905093011 22 77 0.0 0.0 0.00 0.00 0.00 98 1013.8
20260905092007 23 77 0.0 0.0 0.00 0.00 0.00 98 1013.4
20260905091014 23 77 0.0 0.0 0.00 0.00 0.00 98 1013.7
20260905090019 23 77 0.0 0.0 0.00 0.00 0.00 98 1013.6
20260905085011 23 77 0.0 0.0 0.00 0.00 0.00 98 1013.6
20260905084011 23 77 0.0 0.0 0.00 0.00 0.00 97 1013.8
20260905083019 23 77 0.0 0.0 0.00 0.00 0.00 97 1013.7
20260905082023 23 77 0.0 0.0 0.00 0.00 0.00 96 1013.7
20260905081013 23 77 0.0 0.0 0.00 0.00 0.00 97 1013.8
20260905080013 23 77 0.0 0.0 0.00 0.00 0.00 97 1013.9
20260905075008 23 77 0.0 0.0 0.00 0.00 0.00 97 1014.2
20260905074010 23 77 0.0 0.0 0.00 0.00 0.00 96 1014.0
20260905073008 23 77 0.0 0.0 0.00 0.00 0.00 96 1014.2
20260905072008 23 77 0.0 0.0 0.00 0.00 0.00 96 1014.0
20260905071012 23 77 0.0 0.0 0.00 0.00 0.00 96 1014.3
20260905070009 23 77 0.0 0.0 0.00 0.00 0.00 97 1014.3
20260905065012 23 77 0.0 0.0 0.00 0.00 0.00 96 1014.6
20260905064011 23 77 0.0 0.0 0.00 0.00 0.00 96 1014.5
20260905063008 24 77 0.0 0.0 0.00 0.00 0.00 96 1014.8
20260905062009 24 77 0.0 0.0 0.00 0.00 0.00 95 1015.0
20260905061011 24 77 0.0 0.0 0.00 0.00 0.00 94 1015.0